[[{"header":{"parameterUnit":"m.s-1","parameterCategory":1,"la1":30.2991,"la2":30.254,"lo1":-89.0895,"lo2":-89.0444,"dy":0.0017,"dx":0.0017,"nx":28,"ny":28,"refTime":"2023-07-24T09:00:00:Z","depth":0,"parameterNumber":2,"parameterNumberName":"U-component_of_WINDS"},"data":[0,0,0,0,0,0,0,0,0,0,0,0,0,0,0,0,0,0,0,0,0,0,0,0,0,0,0,0,0,0,0,0,0,0,0,0,0,0,0,0,0,0,0,0,0,0,0,0,0,0,0,0,0,0,0,0,0,0,-1.1955,-1.1953,0,-1.1813,-1.1812,-1.181,-1.1759,-1.1759,-1.176,-1.176,-1.1612,-1.1607,-1.1603,0,0,0,0,0,0,0,0,0,0,0,0,0,-1.2178,-1.2174,-1.1955,-1.1953,-1.1951,-1.1814,-1.1812,-1.181,-1.1759,-1.1759,-1.176,-1.176,-1.1613,-1.1608,-1.1603,0,0,0,0,0,0,0,0,0,0,0,0,0,-1.2063,-1.2173,-1.1955,-1.1909,-1.1904,-1.1814,-1.1811,-1.1809,-1.1759,-1.1759,-1.176,-1.1761,-1.1615,-1.1608,-1.1602,-1.1546,0,0,-1.1582,-1.1579,0,0,0,0,0,0,0,0,-1.207,-1.2055,-1.1918,-1.1912,-1.1906,-1.1805,-1.1836,-1.1721,-1.1758,-1.1814,-1.176,-1.1761,-1.1675,-1.1663,-1.1635,-1.1539,-1.1533,-1.1581,-1.1577,-1.1574,-1.1572,0,0,0,0,0,0,0,-1.2078,-1.2061,-1.1899,-1.1916,-1.1909,-1.1895,-1.1879,-1.1814,-1.1742,-1.1809,-1.1805,-1.1789,-1.1672,-1.1642,-1.1631,-1.153,-1.1581,-1.1575,-1.1571,-1.1569,-1.1381,-1.138,0,0,0,0,0,0,-1.2094,-1.2068,-1.1903,-1.1894,-1.1992,-1.189,-1.1873,-1.1836,-1.1742,-1.1729,-1.1788,-1.1787,-1.1653,-1.1639,-1.1626,-1.1554,-1.1574,-1.1568,-1.1564,-1.1382,-1.1381,-1.138,0,0,0,0,0,0,-1.2099,-1.208,-1.1909,-1.198,-1.1957,-1.1886,-1.1845,-1.1833,-1.1803,-1.1727,-1.1714,-1.1771,-1.1653,-1.1635,-1.1566,-1.1548,-1.1565,-1.1559,-1.1383,-1.1382,-1.138,-1.141,0,0,0,0,0,0,-1.2105,-1.2082,-1.206,-1.198,-1.1954,-1.1853,-1.1844,-1.183,-1.1792,-1.1789,-1.1707,-1.1694,-1.1652,-1.1577,-1.156,-1.1539,-1.1554,-1.1385,-1.1383,-1.1381,-1.1411,-1.141,-1.141,0,0,0,0,0,-1.2114,-1.2074,-1.206,-1.204,-1.1926,-1.1852,-1.1837,-1.179,-1.1791,-1.1768,-1.172,-1.1697,-1.1553,-1.157,-1.1551,-1.1528,-1.1386,-1.1383,-1.1381,-1.1411,-1.141,-1.141,0,0,0,0,0,0,-1.2152,-1.2062,-1.2046,-1.1979,-1.1924,-1.1844,-1.1814,-1.1791,-1.1733,-1.1733,-1.1676,-1.1658,-1.1594,-1.1554,-1.1574,-1.1469,-1.1468,-1.1462,-1.1497,-1.1496,-1.1495,-1.1506,-1.1548,0,0,0,0,0,-1.2154,-1.2102,-1.2026,-1.1974,-1.1948,-1.1886,-1.1852,-1.1821,-1.1761,-1.1737,-1.1683,-1.1625,-1.1566,-1.1529,-1.1471,-1.1405,-1.1386,-1.138,-1.1379,-1.1379,-1.1374,-1.1336,-1.1332,-1.1373,-1.1373,-1.1373,0,0,-1.2155,-1.2099,-1.207,-1.1981,-1.1934,-1.1881,-1.1866,-1.1811,-1.1771,-1.1728,-1.166,-1.1619,-1.155,-1.1482,-1.145,-1.1447,-1.1359,-1.1376,-1.1377,-1.1372,-1.1333,-1.133,-1.1326,-1.1371,-1.1371,-1.1371,0,0,-1.213,-1.2083,-1.2035,-1.1989,-1.1919,-1.1879,-1.1867,-1.1791,-1.1762,-1.1693,-1.166,-1.1611,-1.1512,-1.1464,-1.1427,-1.1385,-1.1362,-1.1368,-1.1364,-1.1328,-1.1325,-1.1322,-1.1306,-1.1302,-1.1363,-1.1363,-1.1363,0,-1.214,-1.206,-1.2013,-1.1959,-1.1921,-1.1881,-1.1831,-1.1789,-1.1703,-1.1677,-1.1676,-1.1551,-1.1502,-1.1422,-1.1412,-1.1384,-1.1368,-1.1376,-1.1329,-1.1326,-1.1322,-1.1307,-1.1301,-1.1364,-1.1364,-1.1364,-1.1364,0,-1.2075,-1.202,-1.199,-1.191,-1.1868,-1.1817,-1.1761,-1.1724,-1.1697,-1.1656,-1.1586,-1.1526,-1.1455,-1.1434,-1.1407,-1.1351,-1.1352,-1.1341,-1.1338,-1.132,-1.1305,-1.1299,-1.1366,-1.1366,-1.1365,-1.1365,0,0,-1.207,-1.1966,-1.1955,-1.1918,-1.1839,-1.1795,-1.1742,-1.1674,-1.1643,-1.1586,-1.1539,-1.1457,-1.1446,-1.1404,-1.1371,-1.1339,-1.1309,-1.1332,-1.1329,-1.1329,-1.1244,-1.1253,-1.1247,-1.1294,-1.1293,-1.1292,-1.125,0,-1.2034,-1.1939,-1.1895,-1.1818,-1.1767,-1.1729,-1.1682,-1.1628,-1.1589,-1.1538,-1.1494,-1.1437,-1.1427,-1.1402,-1.1369,-1.132,-1.1291,-1.1323,-1.1249,-1.1247,-1.1267,-1.1238,-1.1247,-1.121,-1.1243,-1.1242,-1.1242,0,-1.198,-1.1924,-1.1843,-1.177,-1.1746,-1.1706,-1.164,-1.1593,-1.1531,-1.1504,-1.1458,-1.1426,-1.1368,-1.1371,-1.1289,-1.1311,-1.1279,-1.125,-1.1248,-1.1239,-1.1243,-1.1228,-1.1197,-1.1192,-1.1232,-1.1232,-1.1233,0,-1.1984,-1.1888,-1.1827,-1.1797,-1.171,-1.1683,-1.1645,-1.1584,-1.1546,-1.1488,-1.1463,-1.1399,-1.1364,-1.1315,-1.1266,-1.1273,-1.1189,-1.1188,-1.1165,-1.1166,-1.1148,-1.115,-1.1112,-1.1129,-1.1129,-1.1129,-1.1129,0,-1.1948,-1.19,-1.1828,-1.179,-1.1735,-1.1685,-1.1631,-1.159,-1.1536,-1.1489,-1.1452,-1.1409,-1.1348,-1.1297,-1.1258,-1.1197,-1.1181,-1.1157,-1.1148,-1.116,-1.1163,-1.1138,-1.1139,-1.1127,-1.1128,-1.1128,-1.1128,0,-1.1943,-1.1893,-1.1824,-1.1748,-1.1728,-1.169,-1.1625,-1.1587,-1.1546,-1.1487,-1.1471,-1.1406,-1.1344,-1.1291,-1.1209,-1.1183,-1.1119,-1.1108,-1.1141,-1.1135,-1.1115,-1.1118,-1.1059,-1.1048,-1.1073,-1.1073,-1.1073,0,-1.1923,-1.1885,-1.1806,-1.1773,-1.1736,-1.1683,-1.1644,-1.1593,-1.1555,-1.1481,-1.1452,-1.1387,-1.1333,-1.1235,-1.118,-1.1117,-1.1104,-1.1087,-1.1094,-1.1108,-1.1103,-1.1106,-1.1102,-1.1087,-1.1087,-1.1087,-1.1087,0,-1.1893,-1.1871,-1.1817,-1.1755,-1.1711,-1.1659,-1.1607,-1.1581,-1.152,-1.1479,-1.1415,-1.1374,-1.129,-1.1226,-1.1158,-1.1118,-1.1092,-1.1086,-1.1077,-1.1089,-1.111,-1.1098,-1.1139,-1.1087,-1.1087,-1.1087,-1.1087,-1.1087,-1.188,-1.1844,-1.1783,-1.1725,-1.1681,-1.1632,-1.1593,-1.1548,-1.1494,-1.1423,-1.1396,-1.1332,-1.127,-1.1175,-1.1136,-1.1084,-1.108,-1.1067,-1.1064,-1.1061,-1.1063,-1.1119,-1.1071,-1.1071,-1.1071,-1.1071,-1.1071,0,-1.1848,-1.1807,-1.1754,-1.1682,-1.1636,-1.1618,-1.1558,-1.1521,-1.1465,-1.141,-1.1358,-1.1285,-1.1223,-1.1164,-1.1099,-1.1069,-1.1055,-1.1053,-1.1055,-1.1046,-1.1071,-1.1084,-1.1066,-1.1066,-1.1066,-1.1066,-1.1066,-1.1066,-1.1826,-1.1765,-1.1735,-1.1652,-1.1611,-1.1548,-1.1516,-1.1471,-1.1427,-1.1348,-1.1297,-1.1259,-1.1203,-1.1133,-1.1076,-1.106,-1.1037,-1.1038,-1.1019,-1.1043,-1.1044,-1.1045,-1.1058,-1.1034,-1.1034,-1.0999,-1.0999,-1.0998]},{"header":{"parameterUnit":"m.s-1","parameterCategory":1,"la1":30.2991,"la2":30.254,"lo1":-89.0895,"lo2":-89.0444,"dy":0.0017,"dx":0.0017,"nx":28,"ny":28,"refTime":"2023-07-24T09:00:00:Z","depth":0,"parameterNumber":3,"parameterNumberName":"V-component_of_WINDS"},"data":[0,0,0,0,0,0,0,0,0,0,0,0,0,0,0,0,0,0,0,0,0,0,0,0,0,0,0,0,0,0,0,0,0,0,0,0,0,0,0,0,0,0,0,0,0,0,0,0,0,0,0,0,0,0,0,0,0,0,1.416,1.4161,0,1.4215,1.4216,1.4216,1.4229,1.4229,1.4229,1.4228,1.4283,1.4285,1.4287,0,0,0,0,0,0,0,0,0,0,0,0,0,1.4063,1.4065,1.416,1.4161,1.4161,1.4215,1.4216,1.4216,1.4229,1.4229,1.4228,1.4228,1.4283,1.4285,1.4287,0,0,0,0,0,0,0,0,0,0,0,0,0,1.411,1.4065,1.416,1.4174,1.4176,1.4215,1.4216,1.4217,1.4229,1.4229,1.4228,1.4228,1.4282,1.4285,1.4287,1.4315,0,0,1.4296,1.4297,0,0,0,0,0,0,0,0,1.4108,1.4114,1.4171,1.4173,1.4175,1.4215,1.4202,1.425,1.423,1.4209,1.4228,1.4228,1.4261,1.4265,1.4277,1.4318,1.432,1.4296,1.4298,1.4299,1.43,0,0,0,0,0,0,0,1.4104,1.4112,1.4182,1.4172,1.4175,1.4177,1.4183,1.4211,1.4237,1.4211,1.4212,1.4218,1.4262,1.4274,1.4278,1.4321,1.4296,1.4298,1.43,1.4301,1.4385,1.4386,0,0,0,0,0,0,1.4099,1.4109,1.418,1.4183,1.414,1.4179,1.4186,1.4203,1.4237,1.4242,1.4219,1.4219,1.427,1.4275,1.428,1.4314,1.4299,1.4301,1.4303,1.4385,1.4386,1.4386,0,0,0,0,0,0,1.4097,1.4105,1.4178,1.4146,1.4156,1.4182,1.42,1.4204,1.4216,1.4243,1.4248,1.4227,1.427,1.4276,1.4306,1.4316,1.4303,1.4305,1.4384,1.4385,1.4386,1.4382,0,0,0,0,0,0,1.4094,1.4104,1.4116,1.4147,1.4157,1.4203,1.4201,1.4206,1.4221,1.4222,1.4252,1.4256,1.427,1.4302,1.4309,1.4319,1.4307,1.4383,1.4384,1.4386,1.4381,1.4382,1.4383,0,0,0,0,0,1.409,1.4113,1.4117,1.4125,1.4173,1.4204,1.421,1.4226,1.4222,1.4233,1.425,1.4255,1.4314,1.4305,1.4313,1.4324,1.4383,1.4384,1.4385,1.438,1.4382,1.4383,0,0,0,0,0,0,1.4083,1.4117,1.4122,1.4155,1.4176,1.4206,1.4221,1.4227,1.425,1.4249,1.4267,1.4274,1.4302,1.4316,1.4306,1.4352,1.4348,1.4351,1.4341,1.4343,1.4344,1.434,1.431,0,0,0,0,0,1.4085,1.4108,1.4137,1.4163,1.4174,1.4195,1.421,1.422,1.4242,1.4252,1.4271,1.4292,1.4315,1.433,1.4353,1.4383,1.4389,1.4395,1.4396,1.4397,1.4399,1.4414,1.4416,1.4391,1.4391,1.4391,0,0,1.409,1.4112,1.4125,1.4162,1.418,1.4203,1.4203,1.4228,1.4244,1.4255,1.4284,1.4299,1.4324,1.4353,1.4367,1.4366,1.4407,1.4398,1.4399,1.4401,1.4415,1.4418,1.442,1.4392,1.4391,1.4391,0,0,1.411,1.4129,1.4152,1.417,1.4197,1.4211,1.4216,1.4245,1.4255,1.4284,1.4292,1.4312,1.4352,1.4368,1.4382,1.4406,1.4411,1.4413,1.4419,1.4433,1.4435,1.4437,1.4444,1.4447,1.4415,1.4415,1.4415,0,1.4112,1.4147,1.4163,1.4187,1.4202,1.4213,1.4235,1.4252,1.4285,1.4294,1.4293,1.4341,1.4359,1.4392,1.4397,1.4409,1.4414,1.441,1.4434,1.4436,1.4438,1.4445,1.4447,1.4415,1.4415,1.4415,1.4415,0,1.4148,1.4172,1.4187,1.4218,1.4235,1.4258,1.4276,1.4292,1.4299,1.4313,1.4341,1.4363,1.4389,1.4398,1.4406,1.4431,1.4429,1.443,1.4427,1.444,1.4446,1.4449,1.4415,1.4415,1.4415,1.4415,0,0,1.4165,1.4204,1.4209,1.4222,1.4252,1.427,1.4293,1.4318,1.433,1.4352,1.437,1.4403,1.4403,1.4419,1.4429,1.4442,1.4457,1.4441,1.4442,1.4442,1.4484,1.4482,1.4485,1.4461,1.4461,1.4462,1.4481,0,1.4188,1.4229,1.4243,1.4277,1.4298,1.4308,1.4327,1.4346,1.4359,1.4379,1.4393,1.4415,1.4415,1.4424,1.4437,1.4452,1.4465,1.4451,1.4477,1.4477,1.4469,1.4489,1.4487,1.4505,1.4484,1.4485,1.4485,0,1.422,1.4241,1.4277,1.4302,1.4311,1.4328,1.4352,1.4371,1.4392,1.4401,1.4417,1.4426,1.4448,1.4444,1.4474,1.4464,1.4475,1.4484,1.4485,1.4487,1.4482,1.449,1.4511,1.4513,1.449,1.4489,1.4489,0,1.4226,1.4265,1.429,1.4302,1.4332,1.4343,1.4356,1.4378,1.4392,1.4412,1.4421,1.4444,1.4456,1.4473,1.4487,1.4483,1.4516,1.4512,1.4522,1.4522,1.4528,1.4528,1.455,1.4537,1.4537,1.4537,1.4537,0,1.4249,1.427,1.4294,1.4309,1.4332,1.4348,1.437,1.4384,1.4402,1.442,1.443,1.4446,1.4464,1.4482,1.4493,1.4516,1.4522,1.4528,1.4531,1.4527,1.4526,1.4534,1.4533,1.4537,1.4537,1.4537,1.4537,0,1.4261,1.4278,1.4306,1.4332,1.4339,1.4355,1.4376,1.4391,1.4404,1.4426,1.4432,1.4452,1.4474,1.449,1.4518,1.4525,1.4549,1.4552,1.4542,1.4543,1.4551,1.455,1.4579,1.4583,1.4568,1.4568,1.4568,0,1.4274,1.429,1.4318,1.433,1.4343,1.4363,1.4377,1.4393,1.4407,1.4432,1.4443,1.4466,1.4484,1.4518,1.4535,1.4556,1.4559,1.4567,1.4562,1.4557,1.4558,1.4556,1.4557,1.4568,1.4568,1.4568,1.4568,0,1.4295,1.4302,1.4322,1.4344,1.436,1.4379,1.4397,1.4407,1.4425,1.444,1.4463,1.4477,1.4505,1.4527,1.4549,1.4562,1.4568,1.457,1.4573,1.4569,1.4562,1.4564,1.4543,1.4569,1.4569,1.4569,1.4569,1.4569,1.4307,1.4321,1.4342,1.4363,1.4378,1.4395,1.441,1.4424,1.4443,1.4468,1.4475,1.4498,1.4518,1.4548,1.4561,1.4578,1.4578,1.4583,1.4584,1.4585,1.4584,1.4559,1.4582,1.4582,1.4582,1.4582,1.4582,0,1.4326,1.434,1.436,1.4385,1.4401,1.4406,1.4426,1.4439,1.4459,1.4477,1.4495,1.452,1.454,1.4558,1.4579,1.4589,1.4592,1.4594,1.4593,1.4596,1.4583,1.4578,1.4591,1.4591,1.4591,1.4591,1.4591,1.4591,1.4339,1.4362,1.4371,1.4402,1.4416,1.4438,1.4449,1.4464,1.4478,1.4505,1.4523,1.4534,1.4552,1.4574,1.4592,1.4597,1.4604,1.4605,1.461,1.4598,1.4597,1.4596,1.4591,1.4606,1.4606,1.4621,1.4621,1.4621]}]]